This is the latest recevied weather packets stored in our database for station/object KM4CNW. If no packets are shown the sender has not sent any weather packets the latest 10 day(s).
| Time | Temp. | Humidity | Pressure | Rain* | Wind** | Luminosity | Snow |
|---|---|---|---|---|---|---|---|
| 1777386393 | 12.78° C | 94% | 1015.1 hPa | 1.78 mm | - | 96 W/m² | - |
| 1777386090 | 12.78° C | 94% | 1015.6 hPa | 1.78 mm | - | 102 W/m² | - |
| 1777385787 | 12.78° C | 94% | 1016.1 hPa | 1.27 mm | - | 64 W/m² | - |
| 1777385484 | 12.78° C | 94% | 1016.3 hPa | 1.27 mm | - | 54 W/m² | - |
| 1777385181 | 12.78° C | 94% | 1016.2 hPa | 0 mm | - | 42 W/m² | - |
| 1777384877 | 12.78° C | 94% | 1016.5 hPa | 1.78 mm | - | 38 W/m² | - |
| 1777384574 | 12.78° C | 94% | 1016.7 hPa | 3.05 mm | - | 57 W/m² | - |
| 1777384269 | 12.78° C | 94% | 1016.9 hPa | 1.27 mm | - | 75 W/m² | - |
| 1777383964 | 12.78° C | 94% | 1017.1 hPa | 1.78 mm | - | 54 W/m² | - |
| 1777383660 | 12.78° C | 94% | 1017.2 hPa | 3.05 mm | - | 40 W/m² | - |
| 1777383357 | 12.78° C | 94% | 1017.4 hPa | 1.27 mm | - | 43 W/m² | - |
| 1777383053 | 12.78° C | 94% | 1018 hPa | 1.78 mm | - | 42 W/m² | - |
| 1777382750 | 12.78° C | 94% | 1018.1 hPa | 1.78 mm | - | 43 W/m² | - |
| 1777382446 | 12.78° C | 94% | 1018.1 hPa | 1.78 mm | - | 53 W/m² | - |
| 1777382142 | 12.22° C | 94% | 1018.2 hPa | 1.78 mm | - | 54 W/m² | - |
| 1777381838 | 12.22° C | 94% | 1018.2 hPa | 1.27 mm | - | 44 W/m² | - |
| 1777381538 | 12.22° C | 94% | 1018.2 hPa | 3.05 mm | - | 60 W/m² | - |
| 1777381233 | 12.22° C | 93% | 1018.4 hPa | 3.05 mm | - | 48 W/m² | - |
| 1777380931 | 12.22° C | 93% | 1018 hPa | 1.27 mm | - | 30 W/m² | - |
| 1777380628 | 12.22° C | 93% | 1018.2 hPa | 1.78 mm | - | 26 W/m² | - |
| 1777380324 | 12.22° C | 93% | 1018 hPa | 1.78 mm | - | 27 W/m² | - |
| 1777380020 | 12.22° C | 93% | 1018.3 hPa | 1.27 mm | - | 44 W/m² | - |
| 1777379716 | 12.22° C | 93% | 1018.5 hPa | 4.32 mm | - | 40 W/m² | - |
| 1777379412 | 12.22° C | 92% | 1018.7 hPa | 4.83 mm | - | 39 W/m² | - |
| 1777379107 | 12.22° C | 92% | 1018.5 hPa | 4.83 mm | - | 24 W/m² | - |
* Rain latest hour (hover to see other rain measurements)
** Current wind speed in m/s (hover to see current wind gust speed)